Time,TemperatureF,DewpointF,PressureIn,WindDirection,WindDirectionDegrees,WindSpeedMPH,WindSpeedGustMPH,Humidity,HourlyPrecipIn,Conditions,Clouds,dailyrainin,SolarRadiationWatts/m^2,SoftwareType,DateUTC
2013-04-27 00:02:00,69.0,13.0,30.13,WSW,256,5.0,8.0,11,-99.99,,,-99.99,0.000000,,2013-04-27 06:02:00,
2013-04-27 00:12:00,69.0,14.0,30.13,WSW,254,5.0,13.0,11,-99.99,,,-99.99,0.000000,,2013-04-27 06:12:00,
2013-04-27 00:22:00,69.0,14.0,30.13,WSW,254,5.0,13.0,11,-99.99,,,-99.99,0.000000,,2013-04-27 06:22:00,
2013-04-27 00:32:00,68.0,15.0,30.13,WSW,245,5.0,9.0,12,-99.99,,,-99.99,0.000000,,2013-04-27 06:32:00,
2013-04-27 00:42:00,67.0,16.0,30.13,WSW,242,4.0,7.0,13,-99.99,,,-99.99,0.000000,,2013-04-27 06:42:00,
2013-04-27 00:52:00,67.0,16.0,30.13,WSW,242,4.0,7.0,13,-99.99,,,-99.99,0.000000,,2013-04-27 06:52:00,
2013-04-27 01:01:00,67.0,14.0,30.13,WSW,245,4.0,8.0,12,-99.99,,,-99.99,0.000000,,2013-04-27 07:01:00,
2013-04-27 01:11:00,67.0,13.0,30.13,West,264,5.0,7.0,12,-99.99,,,-99.99,0.000000,,2013-04-27 07:11:00,
2013-04-27 01:21:00,67.0,13.0,30.13,West,264,5.0,7.0,12,-99.99,,,-99.99,0.000000,,2013-04-27 07:21:00,
2013-04-27 01:32:00,64.0,10.0,30.13,SE,134,5.0,10.0,12,-99.99,,,-99.99,0.000000,,2013-04-27 07:32:00,
2013-04-27 01:42:00,58.0,12.0,30.13,SSE,162,3.0,5.0,16,-99.99,,,-99.99,0.000000,,2013-04-27 07:42:00,
2013-04-27 01:52:00,58.0,12.0,30.13,SSE,162,3.0,5.0,16,-99.99,,,-99.99,0.000000,,2013-04-27 07:52:00,
2013-04-27 02:01:00,58.0,13.0,30.13,South,184,2.0,3.0,16,-99.99,,,-99.99,0.000000,,2013-04-27 08:01:00,
2013-04-27 02:11:00,57.0,11.0,30.15,SE,136,7.0,16.0,16,-99.99,,,-99.99,0.000000,,2013-04-27 08:11:00,
2013-04-27 02:21:00,57.0,11.0,30.15,SE,136,7.0,16.0,16,-99.99,,,-99.99,0.000000,,2013-04-27 08:21:00,
2013-04-27 02:33:00,58.0,16.0,30.15,SSE,167,8.0,15.0,19,-99.99,,,-99.99,0.000000,,2013-04-27 08:33:00,
2013-04-27 02:41:00,63.0,23.0,30.15,SSE,150,11.0,17.0,21,-99.99,,,-99.99,0.000000,,2013-04-27 08:41:00,
2013-04-27 02:52:00,63.0,23.0,30.15,SSE,150,11.0,17.0,21,-99.99,,,-99.99,0.000000,,2013-04-27 08:52:00,
2013-04-27 03:01:00,64.0,25.0,30.15,SE,143,8.0,14.0,22,-99.99,,,-99.99,0.000000,,2013-04-27 09:01:00,
2013-04-27 03:11:00,63.0,23.0,30.15,SE,145,5.0,14.0,21,-99.99,,,-99.99,0.000000,,2013-04-27 09:11:00,
2013-04-27 03:21:00,63.0,23.0,30.15,SE,145,5.0,14.0,21,-99.99,,,-99.99,0.000000,,2013-04-27 09:21:00,
2013-04-27 03:33:00,62.0,21.0,30.15,North,4,3.0,9.0,20,-99.99,,,-99.99,0.000000,,2013-04-27 09:33:00,
2013-04-27 03:42:00,61.0,25.0,30.15,South,183,4.0,11.0,25,-99.99,,,-99.99,0.000000,,2013-04-27 09:42:00,
2013-04-27 03:53:00,61.0,25.0,30.15,South,183,4.0,11.0,25,-99.99,,,-99.99,0.000000,,2013-04-27 09:53:00,
2013-04-27 04:02:00,63.0,26.0,30.14,SE,134,9.0,16.0,24,-99.99,,,-99.99,0.000000,,2013-04-27 10:02:00,
2013-04-27 04:12:00,63.0,26.0,30.15,SE,134,9.0,17.0,24,-99.99,,,-99.99,0.000000,,2013-04-27 10:12:00,
2013-04-27 04:22:00,63.0,26.0,30.15,SE,134,9.0,17.0,24,-99.99,,,-99.99,0.000000,,2013-04-27 10:22:00,
2013-04-27 04:32:00,63.0,26.0,30.15,SE,135,10.0,17.0,24,-99.99,,,-99.99,0.000000,,2013-04-27 10:32:00,
2013-04-27 04:42:00,63.0,26.0,30.16,SE,142,8.0,12.0,24,-99.99,,,-99.99,0.000000,,2013-04-27 10:42:00,
2013-04-27 04:52:00,63.0,26.0,30.16,SE,142,8.0,12.0,24,-99.99,,,-99.99,0.000000,,2013-04-27 10:52:00,
2013-04-27 05:02:00,62.0,26.0,30.16,SE,136,8.0,14.0,25,-99.99,,,-99.99,0.000000,,2013-04-27 11:02:00,
2013-04-27 05:12:00,63.0,26.0,30.16,SE,143,10.0,19.0,24,-99.99,,,-99.99,0.000000,,2013-04-27 11:12:00,
2013-04-27 05:22:00,63.0,26.0,30.16,SE,143,10.0,19.0,24,-99.99,,,-99.99,0.000000,,2013-04-27 11:22:00,
2013-04-27 05:32:00,62.0,26.0,30.17,SE,134,9.0,18.0,24,-99.99,,,-99.99,0.000000,,2013-04-27 11:32:00,
2013-04-27 05:41:00,63.0,26.0,30.17,SSE,164,11.0,18.0,24,-99.99,,,-99.99,0.000000,,2013-04-27 11:41:00,
2013-04-27 05:52:00,63.0,26.0,30.17,SSE,164,11.0,18.0,24,-99.99,,,-99.99,0.000000,,2013-04-27 11:52:00,
2013-04-27 06:01:00,63.0,26.0,30.17,SSE,162,11.0,21.0,24,-99.99,,,-99.99,0.000000,,2013-04-27 12:01:00,
2013-04-27 06:11:00,63.0,26.0,30.17,SSE,154,11.0,18.0,24,-99.99,,,-99.99,0.000000,,2013-04-27 12:11:00,
2013-04-27 06:22:00,63.0,26.0,30.17,SSE,154,11.0,18.0,24,-99.99,,,-99.99,0.000000,,2013-04-27 12:22:00,
2013-04-27 06:32:00,62.0,26.0,30.18,SSE,155,8.0,15.0,25,-99.99,,,-99.99,0.000000,,2013-04-27 12:32:00,
2013-04-27 06:42:00,62.0,27.0,30.18,SSE,159,8.0,16.0,26,-99.99,,,-99.99,0.700000,,2013-04-27 12:42:00,
2013-04-27 06:52:00,62.0,27.0,30.18,SSE,159,8.0,16.0,26,-99.99,,,-99.99,0.700000,,2013-04-27 12:52:00,
2013-04-27 07:02:00,62.0,27.0,30.19,SSE,159,8.0,15.0,26,-99.99,,,-99.99,4.880000,,2013-04-27 13:02:00,
2013-04-27 07:11:00,62.0,27.0,30.19,South,171,6.0,14.0,26,-99.99,,,-99.99,23.709999,,2013-04-27 13:11:00,
2013-04-27 07:21:00,62.0,27.0,30.19,South,171,6.0,14.0,26,-99.99,,,-99.99,23.709999,,2013-04-27 13:21:00,
2013-04-27 07:32:00,63.0,27.0,30.20,South,170,7.0,12.0,25,-99.99,,,-99.99,69.040001,,2013-04-27 13:32:00,
2013-04-27 07:42:00,64.0,27.0,30.20,SSE,159,6.0,11.0,24,-99.99,,,-99.99,122.730003,,2013-04-27 13:42:00,
2013-04-27 07:52:00,64.0,27.0,30.20,SSE,159,6.0,11.0,24,-99.99,,,-99.99,122.730003,,2013-04-27 13:52:00,
2013-04-27 08:02:00,65.0,26.0,30.20,SSE,151,6.0,11.0,23,-99.99,,,-99.99,173.639999,,2013-04-27 14:02:00,
2013-04-27 08:11:00,65.0,26.0,30.20,SSE,151,6.0,11.0,23,-99.99,,,-99.99,173.639999,,2013-04-27 14:11:00,
2013-04-27 08:21:00,65.0,26.0,30.20,SSE,151,6.0,11.0,23,-99.99,,,-99.99,173.639999,,2013-04-27 14:21:00,
2013-04-27 08:31:00,66.0,25.0,30.21,SE,130,5.0,10.0,20,-99.99,,,-99.99,283.809998,,2013-04-27 14:31:00,
2013-04-27 08:42:00,67.0,25.0,30.21,ESE,112,4.0,10.0,20,-99.99,,,-99.99,340.299988,,2013-04-27 14:42:00,
2013-04-27 08:52:00,67.0,25.0,30.21,ESE,112,4.0,10.0,20,-99.99,,,-99.99,340.299988,,2013-04-27 14:52:00,
2013-04-27 09:01:00,67.0,24.0,30.21,ESE,117,4.0,11.0,19,-99.99,,,-99.99,378.649994,,2013-04-27 15:01:00,
2013-04-27 09:12:00,67.0,23.0,30.21,ESE,104,5.0,10.0,19,-99.99,,,-99.99,451.869995,,2013-04-27 15:12:00,
2013-04-27 09:22:00,67.0,23.0,30.21,ESE,104,5.0,10.0,19,-99.99,,,-99.99,451.869995,,2013-04-27 15:22:00,
2013-04-27 09:33:00,68.0,23.0,30.21,SSE,148,6.0,12.0,17,-99.99,,,-99.99,505.570007,,2013-04-27 15:33:00,
2013-04-27 09:42:00,68.0,23.0,30.21,SE,129,5.0,10.0,17,-99.99,,,-99.99,557.869995,,2013-04-27 15:42:00,
2013-04-27 09:53:00,68.0,23.0,30.21,SE,129,5.0,10.0,17,-99.99,,,-99.99,557.869995,,2013-04-27 15:53:00,
2013-04-27 10:03:00,68.0,23.0,30.21,SE,129,5.0,10.0,17,-99.99,,,-99.99,557.869995,,2013-04-27 16:03:00,
2013-04-27 10:13:00,69.0,21.0,30.21,SSE,150,5.0,11.0,16,-99.99,,,-99.99,658.979980,,2013-04-27 16:13:00,
2013-04-27 10:22:00,69.0,21.0,30.21,SSE,150,5.0,11.0,16,-99.99,,,-99.99,658.979980,,2013-04-27 16:22:00,
2013-04-27 10:32:00,70.0,21.0,30.20,SE,129,5.0,10.0,15,-99.99,,,-99.99,683.390015,,2013-04-27 16:32:00,
2013-04-27 10:42:00,70.0,21.0,30.20,SSE,153,5.0,12.0,14,-99.99,,,-99.99,727.320007,,2013-04-27 16:42:00,
2013-04-27 10:53:00,70.0,21.0,30.20,SSE,153,5.0,12.0,14,-99.99,,,-99.99,727.320007,,2013-04-27 16:53:00,
2013-04-27 11:02:00,71.0,20.0,30.20,ESE,114,6.0,15.0,14,-99.99,,,-99.99,788.679993,,2013-04-27 17:02:00,
2013-04-27 11:12:00,71.0,20.0,30.20,ESE,102,4.0,10.0,14,-99.99,,,-99.99,827.039978,,2013-04-27 17:12:00,
2013-04-27 11:22:00,71.0,20.0,30.20,ESE,102,4.0,10.0,14,-99.99,,,-99.99,827.039978,,2013-04-27 17:22:00,
2013-04-27 11:32:00,72.0,20.0,30.20,SE,130,7.0,12.0,13,-99.99,,,-99.99,859.809998,,2013-04-27 17:32:00,
2013-04-27 11:42:00,72.0,20.0,30.19,ENE,69,5.0,11.0,13,-99.99,,,-99.99,889.099976,,2013-04-27 17:42:00,
2013-04-27 11:53:00,72.0,20.0,30.19,ENE,69,5.0,11.0,13,-99.99,,,-99.99,889.099976,,2013-04-27 17:53:00,
2013-04-27 12:02:00,73.0,20.0,30.19,SE,141,6.0,12.0,13,-99.99,,,-99.99,916.299988,,2013-04-27 18:02:00,
2013-04-27 12:12:00,74.0,20.0,30.18,SE,141,6.0,11.0,13,-99.99,,,-99.99,939.309998,,2013-04-27 18:12:00,
2013-04-27 12:22:00,74.0,20.0,30.18,SE,141,6.0,11.0,13,-99.99,,,-99.99,939.309998,,2013-04-27 18:22:00,
2013-04-27 12:32:00,75.0,20.0,30.18,SSE,155,7.0,14.0,12,-99.99,,,-99.99,958.830017,,2013-04-27 18:32:00,
2013-04-27 12:42:00,76.0,20.0,30.17,SE,137,5.0,12.0,12,-99.99,,,-99.99,967.900024,,2013-04-27 18:42:00,
2013-04-27 12:52:00,76.0,20.0,30.17,SE,137,5.0,12.0,12,-99.99,,,-99.99,967.900024,,2013-04-27 18:52:00,
2013-04-27 13:02:00,76.0,20.0,30.16,SE,134,4.0,14.0,11,-99.99,,,-99.99,976.270020,,2013-04-27 19:02:00,
2013-04-27 13:11:00,76.0,19.0,30.15,East,98,5.0,12.0,11,-99.99,,,-99.99,987.419983,,2013-04-27 19:11:00,
2013-04-27 13:21:00,76.0,19.0,30.15,East,98,5.0,12.0,11,-99.99,,,-99.99,987.419983,,2013-04-27 19:21:00,
2013-04-27 13:32:00,77.0,18.0,30.14,ENE,78,3.0,8.0,11,-99.99,,,-99.99,986.729980,,2013-04-27 19:32:00,
2013-04-27 13:42:00,78.0,18.0,30.13,SE,144,6.0,11.0,10,-99.99,,,-99.99,991.609985,,2013-04-27 19:42:00,
2013-04-27 13:53:00,78.0,18.0,30.13,SE,144,6.0,11.0,10,-99.99,,,-99.99,991.609985,,2013-04-27 19:53:00,
2013-04-27 14:02:00,78.0,18.0,30.12,NE,36,6.0,12.0,10,-99.99,,,-99.99,985.330017,,2013-04-27 20:02:00,
2013-04-27 14:11:00,79.0,18.0,30.11,East,92,7.0,13.0,10,-99.99,,,-99.99,978.359985,,2013-04-27 20:11:00,
2013-04-27 14:21:00,79.0,18.0,30.11,East,92,7.0,13.0,10,-99.99,,,-99.99,978.359985,,2013-04-27 20:21:00,
2013-04-27 14:32:00,78.0,18.0,30.11,ENE,65,5.0,11.0,10,-99.99,,,-99.99,963.710022,,2013-04-27 20:32:00,
2013-04-27 14:42:00,78.0,17.0,30.10,NNE,23,5.0,12.0,9,-99.99,,,-99.99,944.190002,,2013-04-27 20:42:00,
2013-04-27 14:52:00,78.0,17.0,30.10,NNE,23,5.0,12.0,9,-99.99,,,-99.99,944.190002,,2013-04-27 20:52:00,
2013-04-27 15:02:00,81.0,17.0,30.09,South,170,4.0,9.0,9,-99.99,,,-99.99,937.909973,,2013-04-27 21:02:00,
2013-04-27 15:11:00,81.0,17.0,30.08,SSE,151,6.0,22.0,9,-99.99,,,-99.99,920.479980,,2013-04-27 21:11:00,
2013-04-27 15:21:00,81.0,17.0,30.08,SSE,151,6.0,22.0,9,-99.99,,,-99.99,920.479980,,2013-04-27 21:21:00,
2013-04-27 15:33:00,81.0,16.0,30.07,SE,129,8.0,15.0,8,-99.99,,,-99.99,895.380005,,2013-04-27 21:33:00,
2013-04-27 15:42:00,81.0,16.0,30.07,SE,129,8.0,15.0,8,-99.99,,,-99.99,895.380005,,2013-04-27 21:42:00,
2013-04-27 15:53:00,81.0,16.0,30.07,SE,129,8.0,15.0,8,-99.99,,,-99.99,895.380005,,2013-04-27 21:53:00,
2013-04-27 16:02:00,82.0,17.0,30.05,SSE,163,8.0,15.0,8,-99.99,,,-99.99,768.460022,,2013-04-27 22:02:00,
2013-04-27 16:13:00,82.0,17.0,30.05,South,190,7.0,13.0,8,-99.99,,,-99.99,741.270020,,2013-04-27 22:13:00,
2013-04-27 16:22:00,82.0,17.0,30.05,South,190,7.0,13.0,8,-99.99,,,-99.99,741.270020,,2013-04-27 22:22:00,
2013-04-27 16:32:00,81.0,16.0,30.04,SSE,149,4.0,8.0,8,-99.99,,,-99.99,433.739990,,2013-04-27 22:32:00,
2013-04-27 16:42:00,80.0,16.0,30.04,SE,131,5.0,13.0,8,-99.99,,,-99.99,571.809998,,2013-04-27 22:42:00,
2013-04-27 16:52:00,80.0,16.0,30.04,SE,131,5.0,13.0,8,-99.99,,,-99.99,571.809998,,2013-04-27 22:52:00,
2013-04-27 17:02:00,81.0,16.0,30.03,SE,139,7.0,15.0,8,-99.99,,,-99.99,676.409973,,2013-04-27 23:02:00,
2013-04-27 17:11:00,81.0,15.0,30.02,SE,142,9.0,16.0,8,-99.99,,,-99.99,580.880005,,2013-04-27 23:11:00,
2013-04-27 17:22:00,81.0,15.0,30.02,SE,142,9.0,16.0,8,-99.99,,,-99.99,580.880005,,2013-04-27 23:22:00,
2013-04-27 17:32:00,81.0,15.0,30.02,SSE,152,8.0,14.0,8,-99.99,,,-99.99,585.059998,,2013-04-27 23:32:00,
2013-04-27 17:42:00,82.0,15.0,30.02,SE,134,9.0,15.0,8,-99.99,,,-99.99,550.890015,,2013-04-27 23:42:00,
2013-04-27 17:52:00,82.0,15.0,30.02,SE,134,9.0,15.0,8,-99.99,,,-99.99,550.890015,,2013-04-27 23:52:00,
2013-04-27 18:01:00,81.0,15.0,30.02,SE,145,12.0,19.0,8,-99.99,,,-99.99,487.440002,,2013-04-28 00:01:00,
2013-04-27 18:11:00,81.0,14.0,30.02,SE,126,11.0,16.0,7,-99.99,,,-99.99,414.910004,,2013-04-28 00:11:00,
2013-04-27 18:21:00,81.0,14.0,30.02,SE,126,11.0,16.0,7,-99.99,,,-99.99,414.910004,,2013-04-28 00:21:00,
2013-04-27 18:32:00,81.0,13.0,30.02,SSE,151,8.0,17.0,7,-99.99,,,-99.99,359.130005,,2013-04-28 00:32:00,
2013-04-27 18:42:00,81.0,12.0,30.02,SSE,151,6.0,12.0,7,-99.99,,,-99.99,255.919998,,2013-04-28 00:42:00,
2013-04-27 18:52:00,81.0,12.0,30.02,SSE,151,6.0,12.0,7,-99.99,,,-99.99,255.919998,,2013-04-28 00:52:00,
2013-04-27 19:01:00,81.0,13.0,30.02,West,275,4.0,9.0,7,-99.99,,,-99.99,211.990005,,2013-04-28 01:01:00,
2013-04-27 19:11:00,81.0,13.0,30.01,WNW,294,4.0,8.0,7,-99.99,,,-99.99,170.850006,,2013-04-28 01:11:00,
2013-04-27 19:21:00,81.0,13.0,30.01,WNW,294,4.0,8.0,7,-99.99,,,-99.99,170.850006,,2013-04-28 01:21:00,
2013-04-27 19:32:00,79.0,12.0,30.01,WNW,303,6.0,10.0,7,-99.99,,,-99.99,92.050003,,2013-04-28 01:32:00,
2013-04-27 19:42:00,78.0,13.0,30.01,WNW,296,6.0,11.0,8,-99.99,,,-99.99,62.060001,,2013-04-28 01:42:00,
2013-04-27 19:52:00,78.0,13.0,30.01,WNW,296,6.0,11.0,8,-99.99,,,-99.99,62.060001,,2013-04-28 01:52:00,
2013-04-27 20:02:00,75.0,15.0,30.01,WNW,285,5.0,7.0,9,-99.99,,,-99.99,17.430000,,2013-04-28 02:02:00,
2013-04-27 20:12:00,74.0,16.0,30.01,WSW,256,3.0,5.0,11,-99.99,,,-99.99,6.280000,,2013-04-28 02:12:00,
2013-04-27 20:22:00,74.0,16.0,30.01,WSW,256,3.0,5.0,11,-99.99,,,-99.99,6.280000,,2013-04-28 02:22:00,
2013-04-27 20:32:00,73.0,14.0,30.01,North,4,4.0,7.0,10,-99.99,,,-99.99,1.390000,,2013-04-28 02:32:00,
2013-04-27 20:42:00,72.0,16.0,30.01,WNW,283,5.0,7.0,11,-99.99,,,-99.99,0.000000,,2013-04-28 02:42:00,
2013-04-27 20:52:00,72.0,16.0,30.01,WNW,283,5.0,7.0,11,-99.99,,,-99.99,0.000000,,2013-04-28 02:52:00,
2013-04-27 21:01:00,68.0,16.0,30.02,WSW,258,5.0,7.0,13,-99.99,,,-99.99,0.000000,,2013-04-28 03:01:00,
2013-04-27 21:11:00,67.0,16.0,30.02,WNW,282,5.0,9.0,13,-99.99,,,-99.99,0.000000,,2013-04-28 03:11:00,
2013-04-27 21:21:00,67.0,16.0,30.02,WNW,282,5.0,9.0,13,-99.99,,,-99.99,0.000000,,2013-04-28 03:21:00,
2013-04-27 21:32:00,68.0,14.0,30.03,WNW,286,5.0,7.0,12,-99.99,,,-99.99,0.000000,,2013-04-28 03:32:00,
2013-04-27 21:43:00,68.0,16.0,30.03,WNW,303,3.0,5.0,13,-99.99,,,-99.99,0.000000,,2013-04-28 03:43:00,
2013-04-27 21:53:00,68.0,16.0,30.03,WNW,303,3.0,5.0,13,-99.99,,,-99.99,0.000000,,2013-04-28 03:53:00,
2013-04-27 22:02:00,66.0,20.0,30.04,WNW,297,2.0,3.0,16,-99.99,,,-99.99,0.000000,,2013-04-28 04:02:00,
2013-04-27 22:13:00,64.0,17.0,30.04,WSW,258,4.0,5.0,16,-99.99,,,-99.99,0.000000,,2013-04-28 04:13:00,
2013-04-27 22:23:00,64.0,17.0,30.04,WSW,258,4.0,5.0,16,-99.99,,,-99.99,0.000000,,2013-04-28 04:23:00,
2013-04-27 22:32:00,66.0,16.0,30.04,WSW,251,3.0,5.0,14,-99.99,,,-99.99,0.000000,,2013-04-28 04:32:00,
2013-04-27 22:42:00,65.0,16.0,30.04,West,262,4.0,6.0,14,-99.99,,,-99.99,0.000000,,2013-04-28 04:42:00,
2013-04-27 22:53:00,65.0,16.0,30.04,West,262,4.0,6.0,14,-99.99,,,-99.99,0.000000,,2013-04-28 04:53:00,
2013-04-27 23:02:00,65.0,19.0,30.04,WSW,246,4.0,7.0,16,-99.99,,,-99.99,0.000000,,2013-04-28 05:02:00,
2013-04-27 23:12:00,64.0,18.0,30.04,WSW,251,4.0,5.0,17,-99.99,,,-99.99,0.000000,,2013-04-28 05:12:00,
2013-04-27 23:22:00,64.0,18.0,30.04,WSW,251,4.0,5.0,17,-99.99,,,-99.99,0.000000,,2013-04-28 05:22:00,
2013-04-27 23:32:00,66.0,15.0,30.04,West,266,4.0,6.0,13,-99.99,,,-99.99,0.000000,,2013-04-28 05:32:00,
2013-04-27 23:42:00,66.0,17.0,30.05,WSW,242,3.0,5.0,14,-99.99,,,-99.99,0.000000,,2013-04-28 05:42:00,
2013-04-27 23:52:00,66.0,17.0,30.05,WSW,242,3.0,5.0,14,-99.99,,,-99.99,0.000000,,2013-04-28 05:52:00,